Location: Boulder, CO
(40.0083°N, 105.2472°W)
Time: 17:59:40
(UTC-06:00)

SORCE - Visible Passes

Search period start: 24 March 2017 00:00
Search period end: 03 April 2017 00:00
Orbit: 586 x 618 km, 40.0° (Epoch: 23 March)

Date Brightness Start Highest point End Pass type
(mag) Time Alt. Az. Time Alt. Az. Time Alt. Az.
24 Mar 6.5 20:56:44 10° SW 21:00:41 39° SSE 21:00:41 39° SSE visible
25 Mar 6.1 21:07:25 10° WSW 21:11:38 56° SSE 21:11:38 56° SSE visible
26 Mar 5.9 21:18:18 10° WSW 21:22:28 72° SSW 21:22:28 72° SSW visible
27 Mar 6.5 19:47:50 10° SW 19:52:00 43° SSE 19:56:11 10° E visible
27 Mar 6.1 21:29:17 10° W 21:33:10 68° WSW 21:33:10 68° WSW visible
28 Mar 6.1 19:58:35 10° WSW 20:02:54 61° SSE 20:07:05 11° E visible
28 Mar 6.5 21:40:19 10° W 21:43:48 55° W 21:43:48 55° W visible
29 Mar 5.9 20:09:30 10° WSW 20:13:53 78° SSE 20:17:38 14° E visible
29 Mar 7.0 21:51:21 10° W 21:54:20 42° W 21:54:20 42° W visible
30 Mar 5.9 20:20:29 10° W 20:24:53 89° S 20:28:08 18° E visible
30 Mar 7.5 22:02:23 10° W 22:04:50 32° W 22:04:50 32° W visible
31 Mar 5.9 20:31:31 10° W 20:35:56 89° N 20:38:36 23° E visible
31 Mar 8.0 22:13:25 10° W 22:15:18 24° W 22:15:18 24° W visible
01 Apr 5.9 20:42:33 10° W 20:46:58 85° S 20:49:03 31° ESE visible
01 Apr 8.4 22:24:31 10° W 22:25:45 17° W 22:25:45 17° W visible
02 Apr 6.0 20:53:35 10° W 20:57:58 70° SSW 20:59:30 39° ESE visible
02 Apr 8.8 22:35:48 10° W 22:36:12 12° W 22:36:12 12° W visible
